Location: ????????
(55.3939°N, 37.4780°E)
Time: 19:54:26
(UTC+00:00)

Cosmos 1300 Rocket - Pass Details

Date: 14 April 2026
Orbit: 596 x 617 km, 82.5° (Epoch: 19 May)

Event Time Altitude Azimuth Distance (km) Brightness Sun altitude
Exits shadow 19:42:37 61° 177° (S) 682 3.4 -21.2°
Maximum altitude 19:43:20 83° 102° (ESE) 609 3.4 -21.2°
Drops below altitude 10° 19:47:39 10° 13° (NNE) 1,951 6.8 -21.5°
Sets 19:49:52 0° 13° (NNE) 2,860 7.7 -21.7°
